DW7287 Weather Reports


Display with metric or nautical units.
time (UTC)temp
F
wind
direction
speed
MPH
gust
MPH
rain 1hr
in
rain 24hr
in
rain mn
in
humidity
%
barometer
mb
20260831031559 70 0 0.0 0.0 0.00 0.01 0.01 94 1020.7
20260831030105 70 0 0.0 0.0 0.00 0.01 0.01 94 1020.7
20260831024618 70 0 0.0 0.0 0.00 0.01 0.01 94 1020.6
20260831023107 71 0 0.0 0.0 0.00 0.01 0.01 93 1020.5
20260831021605 71 0 0.0 0.0 0.00 0.01 0.01 93 1020.5
20260831020103 71 0 0.0 0.0 0.00 0.01 0.01 92 1020.6
20260831014600 71 0 0.0 0.0 0.00 0.01 0.01 91 1020.5
20260831013102 71 0 0.0 1.0 0.00 0.01 0.01 91 1020.5
20260831011602 72 0 0.0 0.0 0.00 0.01 0.01 90 1020.5
20260831010132 72 0 0.0 0.0 0.00 0.01 0.01 90 1020.1
20260831004601 73 0 0.0 1.0 0.00 0.01 0.01 89 1020.0
20260831003059 74 0 0.0 0.0 0.00 0.01 0.01 88 1019.8
20260831001610 74 0 0.0 1.0 0.00 0.01 0.01 87 1019.9
20260831000106 75 0 0.0 0.0 0.00 0.01 0.01 84 1019.7
20260830234604 76 0 0.0 1.0 0.00 0.01 0.01 83 1019.5
20260830233059 77 0 0.0 1.0 0.00 0.01 0.01 84 1019.5
20260830231603 77 0 0.0 2.0 0.00 0.01 0.01 82 1019.4
20260830230058 77 360 0.0 1.0 0.00 0.01 0.01 83 1019.1
20260830224610 77 0 0.0 1.0 0.00 0.01 0.01 84 1019.2
20260830223104 77 360 1.0 2.0 0.00 0.01 0.01 84 1019.3
20260830221602 78 0 0.0 1.0 0.00 0.01 0.01 82 1019.3
20260830220124 79 0 0.0 1.0 0.00 0.01 0.01 79 1019.5
20260830214603 79 0 0.0 1.0 0.00 0.01 0.01 79 1019.6
20260830213108 79 0 0.0 2.0 0.00 0.01 0.01 76 1019.6
20260830211605 80 0 0.0 2.0 0.00 0.01 0.01 73 1019.5
20260830210105 82 147 1.0 6.0 0.00 0.01 0.01 69 1019.8
20260830204601 82 0 0.0 2.0 0.01 0.01 0.01 71 1019.6
20260830203123 81 0 0.0 3.0 0.01 0.01 0.01 75 1019.5
20260830201605 80 0 0.0 2.0 0.01 0.01 0.01 75 1019.5
20260830200105 83 103 0.0 1.0 0.01 0.01 0.01 69 1019.8
20260830194602 87 280 2.0 8.0 0.00 0.00 0.00 68 1019.9
20260830193101 87 337 0.0 3.0 0.00 0.00 0.00 64 1020.0
20260830191602 86 244 1.0 4.0 0.00 0.00 0.00 65 1020.0
20260830184608 85 0 0.0 7.0 0.00 0.00 0.00 68 1020.3
20260830183123 87 316 2.0 10.0 0.00 0.00 0.00 64 1020.7
20260830181623 88 91 1.0 8.0 0.00 0.00 0.00 62 1021.0
20260830180111 87 0 0.0 0.0 0.00 0.00 0.00 65 1021.0
20260830174601 87 0 0.0 0.0 0.00 0.00 0.00 66 1021.4
20260830173136 87 0 0.0 0.0 0.00 0.00 0.00 67 1021.5
20260830171605 86 0 0.0 0.0 0.00 0.00 0.00 67 1021.9
20260830170059 85 0 0.0 0.0 0.00 0.00 0.00 70 1022.0
20260830164608 86 0 0.0 0.0 0.00 0.00 0.00 68 1022.1
20260830163106 86 0 0.0 0.0 0.00 0.00 0.00 66 1022.2
20260830161634 86 0 0.0 0.0 0.00 0.00 0.00 68 1022.0
20260830160104 86 0 0.0 0.0 0.00 0.00 0.00 67 1022.0
20260830154601 85 0 0.0 0.0 0.00 0.00 0.00 69 1022.3
20260830153106 84 0 0.0 0.0 0.00 0.00 0.00 70 1022.2
20260830151604 84 0 0.0 0.0 0.00 0.00 0.00 72 1022.3
20260830150106 83 0 0.0 0.0 0.00 0.00 0.00 71 1022.2
20260830144602 82 0 0.0 0.0 0.00 0.00 0.00 73 1022.2
20260830143106 81 0 0.0 0.0 0.00 0.00 0.00 73 1022.1
20260830141602 80 0 0.0 0.0 0.00 0.00 0.00 74 1022.0
20260830140112 79 0 0.0 0.0 0.00 0.00 0.00 77 1021.8
20260830134605 78 0 0.0 0.0 0.00 0.00 0.00 78 1021.9
20260830133104 76 0 0.0 0.0 0.00 0.00 0.00 83 1021.9
20260830131617 74 0 0.0 0.0 0.00 0.00 0.00 87 1021.9
20260830130113 72 0 0.0 0.0 0.00 0.00 0.00 93 1021.9
20260830124604 70 0 0.0 0.0 0.00 0.00 0.00 96 1022.0
20260830123105 67 0 0.0 0.0 0.00 0.00 0.00 97 1021.8
20260830121602 66 0 0.0 0.0 0.00 0.00 0.00 97 1021.6
20260830120106 65 0 0.0 0.0 0.00 0.00 0.00 96 1021.6
20260830114606 64 0 0.0 0.0 0.00 0.00 0.00 96 1021.7
20260830113111 63 0 0.0 0.0 0.00 0.00 0.00 95 1021.7
20260830111603 63 0 0.0 0.0 0.00 0.00 0.00 95 1021.8
20260830110135 63 0 0.0 0.0 0.00 0.00 0.00 95 1021.7
20260830104603 63 0 0.0 0.0 0.00 0.00 0.00 95 1021.5
20260830103106 64 0 0.0 0.0 0.00 0.00 0.00 95 1021.4
20260830101601 64 0 0.0 0.0 0.00 0.00 0.00 95 1021.4
20260830100059 64 0 0.0 0.0 0.00 0.00 0.00 95 1021.4
20260830094612 64 0 0.0 0.0 0.00 0.00 0.00 95 1021.5
20260830093138 64 0 0.0 0.0 0.00 0.00 0.00 95 1021.4
20260830091601 64 0 0.0 0.0 0.00 0.00 0.00 95 1021.2
20260830090110 65 0 0.0 0.0 0.00 0.00 0.00 95 1021.1
20260830084605 65 0 0.0 0.0 0.00 0.00 0.00 95 1021.3
20260830083102 65 0 0.0 0.0 0.00 0.00 0.00 95 1021.3
20260830081609 65 0 0.0 0.0 0.00 0.00 0.00 95 1021.2
20260830080104 65 0 0.0 0.0 0.00 0.00 0.00 95 1021.2
20260830074656 65 0 0.0 0.0 0.00 0.00 0.00 95 1021.1
20260830073116 65 0 0.0 0.0 0.00 0.00 0.00 95 1021.1
20260830071619 66 0 0.0 0.0 0.00 0.00 0.00 95 1021.1
20260830070103 66 0 0.0 0.0 0.00 0.00 0.00 95 1021.1
20260830064604 66 0 0.0 0.0 0.00 0.00 0.00 95 1021.1
20260830063106 66 0 0.0 0.0 0.00 0.00 0.00 95 1021.2
20260830061603 66 0 0.0 0.0 0.00 0.00 0.00 95 1021.2
20260830060108 67 0 0.0 0.0 0.00 0.00 0.00 94 1021.4
20260830054609 67 0 0.0 0.0 0.00 0.00 0.00 94 1021.5
20260830053104 67 0 0.0 0.0 0.00 0.00 0.00 94 1021.4
20260830051603 67 0 0.0 0.0 0.00 0.00 0.00 94 1021.4
20260830050111 67 0 0.0 0.0 0.00 0.00 0.00 94 1021.4
20260830044608 67 0 0.0 0.0 0.00 0.00 0.00 94 1021.4
20260830043112 68 0 0.0 0.0 0.00 0.00 0.00 93 1021.3
20260830040105 68 0 0.0 0.0 0.00 0.00 0.00 93 1021.3
20260830034606 68 0 0.0 0.0 0.00 0.00 0.00 92 1021.4
20260830033104 68 0 0.0 0.0 0.00 0.00 0.00 92 1021.4